Погода в Кобылках

Россия / Курская область     51°19′46″N   34°40′37″E
темп.,
°C
ветер,
м/с
пор.,
м/с
влажн.,
%
обл.,
%
осадки,
мм/ч
давл.,
гПа
погр.,
м
17 мая, пн
пн1700:00+15св4880100 0.0 1009136
03:00+14св41192100 0.9 1007233
06:00+15в51390100 0.2 1004276
09:00+19юв6147598 0.2 1005584
12:00+23вюв81459100 0.0 10031048
15:00+24юв5756100 0.0 10031176
18:00+22вюв61172100 0.0 1002729
21:00+20юв6148155 0.1 1003491
18 мая, вт
вт1800:00+17ююв41093100 0.1 1004282
03:00+16вюв4797100 0.1 1004175
06:00+16ююв3896100 0.1 1004248
09:00+17ююв61087100 1.5 1004331
12:00+16ююв3892100 4.6 1005386
15:00+19ююв5777100 7.7 10031002
18:00+18ююв588211 1.6 1003738
21:00+14юв4119565 2.1 1004253
19 мая, ср
ср1900:00+13ююв410955 0.4 1004244
03:00+12юв49975 0.4 1004208
06:00+12юв499781 0.0 1005255
09:00+15ююв478883 0.0 1005518
12:00+16ююв4583100 0.7 1005499
15:00+14ююз3591100 1.1 1006299
18:00+14ююз3490100 0.8 1006353
21:00+12юв2394100 1.1 1006100
20 мая, чт
чт2000:00+11вюв3395100 0.1 100649
03:00+11юв359572 0.1 1005121
06:00+11юв2494100 0.1 1005131
09:00+15ююз568676 0.4 1005701
12:00+13ююз6987100 0.2 1007763
15:00+16юз7117330 0.6 10071334
18:00+16ююз5107699 0.4 1008990
21:00+13ююз41094100 0.9 1009459
21 мая, пт
пт2100:00+12ю71494100 0.8 1009760
03:00+12ююз61296100 3.1 1009726
06:00+12юз6995100 1.0 1011592
09:00+12юз478045 1.1 1012538
12:00+14зюз5973100 0.1 10141414
15:00+16зсз676084 0.1 10141376
18:00+16з346798 0.0 10151290
21:00+11сз2280100 0.0 101617